Location: Degersen
(52.2871°N, 9.5716°E)
Time: 14:31:23
(UTC+00:00)

SJ 16-02 - Visible Passes

Search period start: 11 April 2026 00:00
Search period end: 21 April 2026 00:00
Orbit: 582 x 593 km, 75.0° (Epoch: 11 April)

Date Brightness Start Highest point End Pass type
(mag) Time Alt. Az. Time Alt. Az. Time Alt. Az.
11 Apr 3.8 01:02:10 10° NW 01:02:33 12° WNW 01:02:33 12° WNW visible
11 Apr 3.6 21:53:32 10° N 21:56:09 16° NE 21:56:47 15° NE visible
11 Apr 2.6 23:30:38 10° NNW 23:33:17 37° NNW 23:33:17 37° NNW visible
12 Apr 3.2 22:00:33 10° N 22:03:48 20° NE 22:04:01 20° NE visible
12 Apr 2.7 23:38:03 10° NNW 23:40:30 32° NW 23:40:30 32° NW visible
13 Apr 2.8 22:07:41 10° N 22:11:15 27° NE 22:11:15 27° NE visible
13 Apr 3.0 23:45:34 10° NW 23:47:44 26° NW 23:47:44 26° NW visible
14 Apr 2.4 22:14:54 10° N 22:18:30 37° NE 22:18:30 37° NE visible
14 Apr 3.3 23:53:11 10° NW 23:54:59 20° WNW 23:54:59 20° WNW visible
15 Apr 3.8 20:45:58 10° NNE 20:47:18 11° NE 20:48:38 10° ENE visible
15 Apr 2.0 22:22:12 10° NNW 22:25:45 48° NNE 22:25:45 48° NNE visible
16 Apr 3.6 00:00:58 10° NW 00:02:14 15° WNW 00:02:14 15° WNW visible
16 Apr 3.5 20:52:33 10° N 20:54:59 15° NE 20:56:32 13° ENE visible
16 Apr 1.8 22:29:31 10° NNW 22:33:02 57° N 22:33:02 57° N visible
17 Apr 3.8 00:09:05 10° WNW 00:09:31 11° WNW 00:09:31 11° WNW visible
17 Apr 3.1 20:59:30 10° N 21:02:38 19° NE 21:03:50 17° ENE visible
17 Apr 1.9 22:36:56 10° NNW 22:40:19 52° NW 22:40:19 52° NW visible
18 Apr 2.7 21:06:36 10° N 21:10:13 26° NE 21:11:07 24° ENE visible
18 Apr 2.3 22:44:25 10° NNW 22:47:37 40° WNW 22:47:37 40° WNW visible
19 Apr 2.2 21:13:47 10° N 21:17:45 35° ENE 21:18:26 33° ENE visible
19 Apr 2.7 22:51:59 10° NW 22:54:55 29° W 22:54:55 29° W visible
20 Apr 3.7 19:45:09 10° NNE 19:46:03 11° NE 19:46:57 10° NE visible
20 Apr 1.6 21:21:03 10° NNW 21:25:13 50° ENE 21:25:46 46° E visible
20 Apr 3.1 22:59:42 10° NW 23:02:15 21° W 23:02:15 21° W visible
